Flag for Canada Weather past 2 weeks in Clarington, Ontario, Canada

Now
61 °F

Overcast.


Feels Like: 61 °F
Forecast: 54 / 69 °F
Wind: 5 mph from Northwest

Location: Peterborough Airport

Current Time: Jul 29, 2014 at 9:43:09 AM

Latest Report: Jul 29, 2014 at 9:00 AM


Visibility: 9 mi

Pressure: 29.91 "Hg

Humidity: 77%

Dew point: 54 °F

Location of ClaringtonLocation

Historic Weather in Clarington — Graph

°F

Clarington temperature yesterday

Maximum temperature yesterday: 68 °F (at 3:00 PM)
Minimum temperature yesterday: 54 °F (at 10:00 PM)
Average temperature yesterday: 62 °F

Past Weeks' High & Low Weather Summary

 TemperatureHumidityPressure
High82 °F (Jul 22, 12:00 PM)100% (Jul 15, 3:58 AM)30.25 "Hg (Jul 15, 3:58 AM)
Low45 °F (Jul 17, 6:00 AM)36% (Jul 18, 2:00 PM)29.63 "Hg (Jul 27, 5:00 PM)
Average64 °F78%29.95 "Hg
* Reported Jul 14 9:00 AM — Jul 29 9:00 AM, Clarington, Weather by CustomWeather, © 2014

Note: Actual official high and low records may vary slightly from our data, if they occured in-between our weather recording intervals... More about our weather records

Advertising

Clarington weather history for previous 24 hours

 ConditionsComfort  
Time TempWeatherWind HumidityBarometerVisibility
9:00 AM
Jul 29
61 °FOvercast.5 mph77%29.91 "Hg9 mi
8:00 AM57 °FOvercast.2 mph88%29.90 "Hg9 mi
7:00 AM54 °FPartly sunny.3 mph94%29.89 "Hg9 mi
6:00 AM52 °FClear.5 mph94%29.87 "Hg9 mi
5:00 AM54 °FPassing clouds.2 mph88%29.85 "Hg9 mi
4:00 AM54 °FOvercast.No wind94%29.85 "Hg9 mi
3:00 AM55 °FPassing clouds.3 mph82%29.85 "Hg9 mi
2:00 AM57 °FOvercast.5 mph82%29.85 "Hg9 mi
1:00 AM59 °FOvercast.6 mph72%29.85 "Hg9 mi
12:00 AM57 °FOvercast.5 mph77%29.85 "Hg9 mi
11:00 PM
Jul 28
54 °FOvercast.3 mph88%29.85 "Hg9 mi
10:00 PM54 °FPassing clouds.5 mph94%29.84 "Hg9 mi
9:00 PM55 °FSunny.3 mph94%29.83 "Hg9 mi
8:00 PM63 °FSunny.9 mph64%29.82 "Hg9 mi
7:00 PM64 °FPassing clouds.14 mph64%29.80 "Hg9 mi
6:00 PM68 °FPassing clouds.17 mph56%29.77 "Hg9 mi
5:00 PM68 °FPassing clouds.12 mph53%29.76 "Hg9 mi
4:00 PM68 °FSunny.13 mph56%29.75 "Hg9 mi
3:00 PM68 °FMore clouds than sun.16 mph56%29.74 "Hg9 mi
2:00 PM66 °FPartly sunny.14 mph64%29.72 "Hg9 mi
1:00 PM64 °FMostly cloudy.12 mph68%29.73 "Hg9 mi
12:00 PM61 °FOvercast.14 mph72%29.72 "Hg9 mi
11:00 AM59 °FOvercast.14 mph82%29.71 "Hg9 mi
10:00 AM59 °FBroken clouds.15 mph82%29.70 "Hg9 mi
9:47 AM59 °FMore clouds than sun.8 mph82%29.70 "Hg9 mi
9:04 AM57 °FOvercast.14 mph88%29.69 "Hg9 mi
9:00 AM57 °FLight rain. Overcast.13 mph88%29.68 "Hg9 mi
Weather by CustomWeather, © 2014

See weather overviewHow to use our weather pages